Location: Caltech
(34.1382°N, 118.1253°W)
Time: 19:43:49
(UTC-07:00)

Cosmos 1937 Rocket - Visible Passes

Search period start: 22 May 2015 00:00
Search period end: 01 June 2015 00:00
Orbit: 747 x 782 km, 74.0° (Epoch: 22 May)

Date Brightness Start Highest point End Pass type
(mag) Time Alt. Az. Time Alt. Az. Time Alt. Az.
22 May 6.1 01:11:49 12° ENE 01:11:49 12° ENE 01:12:37 10° ENE visible
22 May 4.0 02:52:00 52° NW 02:52:00 52° NW 02:56:35 10° N visible
23 May 4.2 02:14:32 51° NNE 02:14:32 51° NNE 02:18:31 10° NNE visible
23 May 5.7 03:54:43 10° WNW 03:55:57 11° NW 03:57:14 10° NW visible
24 May 5.0 01:37:02 31° NE 01:37:02 31° NE 01:40:08 10° NNE visible
24 May 5.2 03:17:13 20° WNW 03:17:22 20° WNW 03:21:07 10° NNW visible
25 May 5.7 00:59:31 17° ENE 00:59:31 17° ENE 01:01:17 10° NE visible
25 May 4.7 02:39:42 33° NW 02:39:42 33° NW 02:43:44 10° N visible
26 May 4.5 02:02:09 44° N 02:02:09 44° N 02:05:56 10° N visible
27 May 4.8 01:24:35 37° NNE 01:24:35 37° NNE 01:27:48 10° NNE visible
27 May 5.7 03:04:45 13° WNW 03:05:08 13° WNW 03:07:17 10° NNW visible
28 May 5.4 00:46:58 24° NE 00:46:58 24° NE 00:49:20 10° NE visible
28 May 5.3 02:27:09 22° NW 02:27:09 22° NW 02:30:38 10° NNW visible
29 May 5.9 00:09:21 14° ENE 00:09:21 14° ENE 00:10:21 10° NE visible
29 May 4.8 01:49:31 33° NW 01:49:31 33° NW 01:53:08 10° N visible
30 May 4.7 01:11:51 40° N 01:11:51 40° N 01:15:15 10° NNE visible
31 May 5.0 00:34:11 32° NE 00:34:11 32° NE 00:37:03 10° NNE visible
31 May 5.8 02:14:20 14° WNW 02:14:20 14° WNW 02:17:03 10° NNW visible
31 May 5.4 23:56:27 21° NE 23:56:27 21° NE 23:58:29 10° NE visible
